Theta_e
327 331 332 339 345 349 353 354 356 361 366 357 355 361 360 361 357 361 361 355 355 352 352 348 343 347 350 353 352 351 349 349 350 347 344 342 343 346 344 343 343 344 347 349 348 349 349 349 348 348 348 348 349 349 351 353 352 351 352 352 351 350 350 351 351 350 350 350 352 352 352 350 343 345 351 351 352 352 351 351 351 351 351 351 350 350 349 349 350 351 352 352 353 352 351 351 352
327 333 339 346 346 353 360 356 360 362 360 354 354 361 360 360 359 362 362 357 356 352 350 345 348 355 351 349 349 349 347 347 347 346 345 344 346 346 344 343 342 343 346 348 348 348 348 349 350 350 349 349 348 349 351 352 353 352 352 351 351 350 350 351 350 349 350 350 352 352 352 348 340 344 350 351 352 352 353 353 353 352 351 352 352 351 350 349 350 350 351 351 352 351 351 352 352
331 340 344 347 349 355 360 359 363 358 354 353 353 363 363 358 360 360 357 355 353 348 347 347 352 352 347 350 351 351 348 345 345 345 346 346 347 346 345 343 343 344 346 348 348 348 348 349 350 350 350 348 347 349 351 352 352 352 352 351 350 350 351 351 350 349 350 351 352 351 352 347 338 343 350 351 353 352 353 353 353 352 351 351 352 351 351 351 351 351 352 351 352 351 351 352 352
336 344 345 347 356 359 364 368 366 359 354 354 351 362 369 362 361 357 355 353 349 347 347 350 353 348 351 355 351 349 348 347 344 344 346 345 346 346 345 345 345 345 347 349 348 348 349 349 349 349 349 346 346 350 351 351 352 352 352 351 350 351 352 352 350 350 350 350 351 351 352 349 341 343 350 352 352 353 353 353 353 352 351 350 351 351 350 350 350 351 352 351 351 352 352 352 352
346 351 348 349 361 361 365 369 368 361 355 359 355 358 366 360 360 356 354 353 349 349 347 351 352 349 352 350 349 350 349 347 344 343 345 345 345 345 346 347 346 346 348 350 349 350 350 350 350 349 349 346 346 350 351 351 351 351 351 350 350 351 352 352 351 351 352 352 352 352 351 350 344 343 349 351 352 352 352 352 353 353 353 352 352 352 351 350 349 350 352 351 351 352 352 353 352
349 353 351 351 357 357 362 363 362 362 358 365 360 357 363 357 357 354 352 352 352 351 349 352 349 349 350 346 348 349 346 345 346 345 346 346 345 345 347 346 347 348 349 350 351 351 351 351 351 349 349 348 349 350 350 351 351 351 350 349 349 351 353 352 352 352 353 354 353 352 351 349 345 344 348 351 352 352 352 352 353 353 353 352 352 353 352 351 351 351 352 351 351 352 353 352 352
349 354 356 357 357 359 367 362 359 364 360 364 363 360 366 362 354 351 352 351 352 353 350 350 345 352 352 347 350 347 344 345 346 346 345 346 345 345 346 346 348 350 350 351 351 351 351 351 350 349 350 351 351 351 351 352 352 352 351 350 350 350 352 352 352 353 353 354 354 353 351 349 345 345 348 350 351 352 352 352 353 352 353 352 352 353 352 352 352 352 351 351 351 352 352 352 351
350 356 358 360 364 366 368 363 362 367 362 361 363 361 364 365 355 350 353 349 352 352 348 348 345 354 353 350 355 349 346 345 345 346 345 345 345 345 346 346 348 350 350 351 351 351 351 351 349 349 350 352 351 352 352 353 353 352 353 352 351 351 352 353 353 353 352 352 353 353 351 350 348 347 348 349 350 351 351 352 353 352 353 353 353 353 351 350 351 351 351 351 351 351 352 351 350
350 358 357 359 367 367 364 363 362 365 366 362 362 364 364 365 361 354 352 349 350 350 348 349 348 355 353 352 355 349 348 348 346 347 347 346 345 345 346 347 349 350 351 351 351 351 351 350 349 348 349 351 352 351 351 352 352 353 353 352 352 353 352 353 353 352 352 352 352 353 352 351 349 349 349 350 350 350 350 351 352 352 352 352 352 352 350 349 350 349 349 349 349 349 350 350 349
352 357 358 362 366 363 359 359 362 366 369 362 361 366 365 366 365 355 351 350 349 350 350 350 350 354 352 353 353 349 350 349 347 349 349 347 345 345 346 347 349 350 351 351 350 349 349 348 348 348 348 350 350 347 349 350 350 352 353 352 352 352 352 352 353 352 352 352 351 353 353 350 350 349 350 350 350 350 350 351 352 351 351 351 351 351 350 350 350 349 349 349 349 349 349 349 349
358 360 358 363 364 358 357 359 364 370 369 363 361 361 360 365 363 352 350 351 351 352 350 349 352 351 352 354 352 349 350 349 349 350 350 348 346 344 345 348 349 349 350 349 348 347 348 348 348 349 349 349 345 344 349 349 349 352 353 352 351 351 351 350 352 352 351 352 351 353 353 351 351 349 349 350 351 351 349 350 351 350 350 351 351 350 349 348 348 348 348 349 349 350 350 349 349
362 364 362 366 361 357 360 363 365 368 368 365 362 359 359 362 357 352 353 353 352 352 350 351 351 350 355 355 351 349 349 349 350 350 351 349 346 344 346 349 349 348 348 347 347 348 349 349 350 350 349 347 345 347 349 349 349 351 351 351 350 350 350 350 351 350 350 352 352 352 353 353 352 350 349 349 350 350 349 349 349 349 350 351 351 350 347 346 346 347 348 349 349 349 350 350 350
364 363 363 365 360 359 361 365 366 366 368 366 364 362 361 362 359 355 353 352 352 352 351 350 349 351 355 353 351 349 348 350 351 351 350 349 347 346 348 351 349 348 347 347 348 349 350 350 349 349 349 349 347 348 348 348 350 351 350 348 349 349 349 350 350 350 350 350 351 350 351 352 352 351 349 349 349 350 350 349 347 347 350 351 350 349 347 345 344 345 347 349 349 348 349 349 349
361 360 360 361 362 362 362 363 366 363 364 365 362 361 363 364 364 360 354 352 353 351 349 347 347 352 354 352 352 350 350 352 352 352 350 349 348 348 350 351 349 347 346 347 348 349 350 351 350 350 351 350 347 348 349 349 351 351 349 347 347 348 349 350 350 350 350 349 349 349 349 351 351 351 350 349 349 350 350 349 347 347 349 350 349 348 346 344 343 342 345 347 349 348 349 348 347
356 361 361 363 364 363 364 365 366 363 363 364 360 361 364 360 362 362 354 355 353 347 348 348 347 352 355 351 352 351 350 353 353 352 351 350 350 350 351 350 348 347 347 348 349 349 350 352 351 351 351 349 348 349 349 349 351 350 349 348 348 348 349 350 350 350 349 349 349 348 348 350 351 351 351 350 350 350 349 348 346 346 349 351 349 347 345 343 342 341 342 345 348 348 348 348 348
358 363 362 364 363 361 366 366 365 365 365 363 357 359 362 357 360 360 353 354 351 345 349 350 346 350 353 349 350 349 351 354 353 352 351 351 351 351 350 349 348 348 348 349 350 350 350 352 352 351 349 347 349 350 349 349 350 350 349 350 349 349 349 349 350 350 350 350 350 349 349 350 350 351 352 352 351 349 346 344 343 344 349 350 349 345 342 341 340 340 341 344 347 348 348 348 348
360 360 360 362 362 362 365 368 365 364 365 361 357 362 362 357 360 357 352 352 350 348 349 349 347 347 349 349 349 349 352 353 352 353 352 351 351 350 349 348 348 348 349 349 350 350 350 351 352 351 349 347 348 349 348 348 349 349 349 349 350 349 348 348 350 350 350 350 350 350 349 349 351 351 352 352 351 348 345 342 340 342 346 347 346 342 340 339 339 340 340 343 346 347 347 347 347
360 359 358 360 364 365 365 367 365 363 364 359 358 364 360 358 360 355 351 351 350 350 349 349 349 348 348 349 350 351 353 353 352 352 350 351 350 349 349 348 348 348 349 349 350 350 351 351 351 350 349 348 348 348 348 348 349 349 348 349 350 348 348 349 349 349 350 350 350 350 349 349 351 351 351 351 350 348 347 343 340 342 343 342 340 338 337 338 339 339 339 341 344 346 347 347 347
361 361 358 362 367 363 359 363 365 362 362 358 359 363 360 359 359 356 354 353 352 353 351 351 351 350 349 350 351 352 352 353 352 351 350 350 349 349 349 349 348 349 349 350 350 350 350 350 351 350 349 349 350 348 348 348 348 349 348 349 350 349 348 349 349 348 349 350 350 350 350 350 351 351 350 350 349 349 349 345 342 340 339 339 337 336 336 336 336 337 339 341 344 346 346 346 346
361 361 361 366 364 358 355 358 361 360 359 358 360 362 361 359 358 357 354 353 352 353 352 353 354 352 351 351 352 352 352 353 352 351 350 349 349 349 349 349 349 349 350 350 350 350 350 350 350 350 349 350 350 349 348 348 348 349 349 349 349 349 349 349 348 347 349 350 350 350 350 350 350 351 350 349 349 350 349 347 344 341 340 340 338 335 335 335 335 336 338 341 344 345 345 345 345
358 358 365 366 358 358 356 355 358 357 356 358 359 361 361 358 359 359 353 354 354 350 351 352 354 352 351 351 351 353 352 352 352 351 350 350 350 350 349 350 349 349 350 350 350 350 349 349 349 349 349 349 350 349 348 348 349 348 348 348 348 348 349 349 348 348 349 349 350 351 350 351 350 350 349 349 350 350 349 347 345 343 342 341 338 337 336 335 335 336 338 340 342 343 343 344 344
359 359 362 361 358 360 357 355 358 357 357 359 359 361 359 355 359 359 352 355 354 348 348 350 351 351 351 351 351 352 352 352 352 351 350 350 350 350 351 350 349 349 349 350 350 349 349 349 349 349 350 349 349 349 348 349 349 348 347 348 348 348 349 349 348 348 349 349 350 350 350 350 349 348 349 349 349 348 346 345 344 343 341 340 339 340 341 340 338 338 339 340 341 341 342 343 344
361 362 360 360 362 361 358 356 357 356 357 359 358 358 356 355 358 358 356 357 353 346 347 348 350 350 350 351 351 351 351 352 351 351 351 350 350 351 351 350 349 349 349 349 349 349 349 348 349 350 350 349 349 349 348 348 350 349 348 348 347 348 349 348 349 349 349 349 349 349 350 349 349 348 349 348 347 346 344 343 342 341 341 342 344 346 346 345 343 342 342 343 344 345 345 345 345
360 364 361 361 362 361 359 357 357 358 358 358 357 358 358 359 357 355 360 362 352 346 347 348 349 349 350 351 351 351 351 352 351 351 351 350 351 351 351 350 349 349 349 349 349 349 349 349 349 349 350 349 349 349 348 348 349 349 348 348 347 347 348 348 349 349 349 348 348 348 348 348 349 349 348 347 346 345 343 341 342 343 345 347 349 349 349 348 347 347 347 348 348 348 347 346 345
358 364 363 360 360 360 358 357 358 358 360 358 358 361 362 361 357 356 362 359 348 346 347 348 349 349 350 350 351 351 351 351 351 351 351 350 350 350 350 349 349 349 349 350 349 350 349 349 349 349 349 349 349 349 348 348 348 348 348 349 349 348 348 348 348 348 348 347 347 347 347 348 349 348 347 345 344 343 341 341 344 346 348 350 350 350 349 349 350 349 349 349 348 348 347 346 345
362 363 363 360 359 359 357 357 358 359 361 359 359 361 362 359 355 357 359 351 344 346 348 348 349 349 350 350 350 350 350 350 350 350 350 350 350 350 350 350 349 348 349 349 349 350 349 349 350 349 349 348 348 348 348 348 348 348 348 348 349 348 348 348 347 347 347 346 346 346 347 348 347 346 344 343 343 341 341 344 346 348 349 350 350 350 350 350 350 349 349 349 348 348 347 346 345
362 358 357 356 357 358 358 358 357 359 360 359 360 360 361 358 355 357 352 346 345 347 348 349 349 350 349 349 349 350 350 350 350 350 349 349 349 349 349 349 349 349 349 349 349 349 349 349 350 349 348 348 348 348 348 348 347 347 348 348 347 347 348 347 346 346 346 347 347 347 347 347 346 344 343 342 342 342 343 346 347 348 349 350 350 350 350 350 350 350 349 348 348 348 346 346 346
357 355 355 353 354 357 358 359 357 359 359 358 360 359 360 358 361 365 351 343 346 347 349 349 348 349 349 349 349 349 348 348 349 348 348 348 349 348 349 349 348 349 348 348 350 349 349 350 349 349 348 347 347 348 348 347 347 346 347 347 346 346 347 346 346 345 346 347 347 347 347 346 345 343 342 342 342 343 345 347 348 349 350 350 350 351 351 351 350 350 350 350 349 348 347 347 347
356 358 361 354 352 356 357 357 356 358 358 356 358 358 358 360 366 366 351 344 347 346 349 349 348 349 348 348 348 347 347 346 347 346 347 348 348 348 348 348 347 347 347 348 349 349 349 349 348 349 348 347 347 348 348 347 347 346 346 346 346 346 346 346 345 346 346 347 347 347 346 346 344 343 342 342 343 345 347 349 349 350 350 350 351 351 351 351 350 350 350 350 348 347 347 347 348
360 361 362 358 357 360 357 355 355 357 356 355 358 356 357 361 363 360 348 345 347 347 349 347 347 347 346 347 346 346 345 343 344 345 346 347 348 348 347 348 346 345 346 348 349 349 348 348 347 349 348 347 347 348 348 347 347 346 345 345 346 346 345 346 345 346 346 347 347 347 347 347 346 343 342 343 345 347 349 349 350 350 350 351 351 351 351 351 351 350 350 349 347 346 347 348 348
362 360 360 361 359 359 356 352 356 360 356 357 359 355 357 359 358 355 347 345 346 347 348 346 347 346 346 346 345 345 343 342 344 343 345 347 348 347 347 347 346 345 346 348 350 350 349 348 347 348 347 346 346 348 348 346 347 346 345 344 346 346 345 345 346 346 346 347 348 348 349 349 347 344 343 344 347 348 348 349 350 350 351 351 351 351 351 351 351 351 350 348 346 346 347 349 348
361 355 357 361 358 358 356 352 357 361 356 358 359 355 357 357 355 354 348 345 347 347 347 346 346 346 346 345 344 345 343 342 343 344 345 346 347 347 347 347 346 345 345 348 351 350 349 348 347 346 346 345 345 347 346 346 347 346 344 344 345 345 344 345 346 346 347 348 348 349 349 348 346 344 343 345 347 348 349 350 350 350 351 351 351 351 351 351 351 351 350 349 347 346 347 348 347
362 356 355 358 358 359 358 355 356 359 358 359 359 359 360 357 354 351 347 346 347 347 347 346 346 345 345 345 344 344 343 343 344 345 345 346 347 347 347 346 345 345 345 348 350 350 349 348 347 346 346 346 345 346 346 346 348 347 344 343 344 344 344 344 346 347 347 348 348 349 348 346 345 344 345 346 347 349 349 350 350 351 352 352 351 352 352 352 352 351 350 349 348 348 349 348 347
360 358 356 357 359 358 358 358 356 356 361 362 359 361 362 355 351 350 348 348 347 347 347 346 346 346 345 345 345 345 344 345 345 345 346 347 348 348 347 346 345 346 346 347 349 348 348 348 347 346 346 347 346 345 346 345 347 348 345 344 345 344 344 346 347 348 348 348 348 348 347 346 345 345 346 347 347 349 349 350 351 352 353 352 351 352 352 352 352 351 349 348 349 349 350 348 346
356 356 358 359 360 358 357 361 359 357 362 364 360 361 360 353 350 350 349 349 349 348 347 346 346 346 346 345 345 344 343 344 344 344 346 347 348 348 348 347 346 347 348 348 349 349 349 349 348 347 347 347 346 345 346 345 347 348 346 344 346 346 347 348 349 350 349 348 348 347 347 347 347 347 346 347 347 348 349 351 351 353 353 352 351 353 353 353 353 351 349 348 348 349 349 348 346
358 358 361 360 358 358 360 361 359 359 363 364 362 362 358 352 350 349 350 350 349 349 348 347 347 347 346 345 344 343 343 344 343 344 346 347 348 348 348 348 347 347 349 349 349 350 350 350 349 348 348 348 347 346 345 345 346 347 346 346 347 349 350 350 351 350 349 348 348 348 349 349 349 348 347 347 348 349 350 351 352 354 354 351 352 353 353 353 352 350 350 349 348 348 349 348 344
363 360 360 359 357 359 364 362 358 360 364 363 361 360 356 352 350 349 352 352 349 349 350 348 348 349 347 345 344 343 343 342 341 343 346 346 348 348 348 349 348 349 350 350 350 350 350 351 350 349 348 347 346 346 345 345 346 346 346 347 349 350 351 351 351 351 349 348 349 349 349 349 349 348 348 348 349 350 351 351 352 353 353 351 352 353 353 353 352 351 351 350 349 349 348 348 344
363 361 359 358 358 360 362 361 358 358 361 359 359 358 354 351 350 349 355 357 351 348 348 349 349 348 346 345 344 343 342 342 342 344 345 347 348 348 348 349 349 350 351 350 350 350 351 351 349 348 347 347 345 345 345 345 345 345 346 348 349 349 350 350 350 350 349 349 349 349 349 349 349 348 349 349 349 350 350 351 352 353 354 353 352 353 353 353 353 353 352 350 350 350 348 349 347
360 362 359 357 360 359 358 360 357 357 359 358 357 357 356 357 354 351 358 362 360 354 349 347 348 347 345 344 344 343 342 344 345 345 345 347 348 349 349 349 349 350 350 350 350 350 351 350 347 347 346 346 345 345 345 346 345 345 345 346 347 349 349 349 349 349 349 350 350 349 350 350 350 349 349 349 350 350 350 351 352 354 354 355 354 353 354 354 355 354 353 351 351 350 348 348 348
359 363 358 357 359 357 357 359 354 354 358 357 357 358 359 361 357 353 355 358 361 361 356 349 347 347 345 342 342 341 342 345 347 346 346 347 348 349 349 349 350 350 350 350 350 351 351 349 347 347 346 345 345 346 346 346 346 346 346 346 347 348 349 348 349 349 349 349 349 349 349 350 350 350 351 351 351 351 350 351 352 354 354 355 354 354 354 356 355 355 355 353 351 350 349 348 348
359 362 359 361 361 358 358 358 353 355 357 356 356 356 356 358 357 354 352 353 356 361 361 353 347 346 344 342 341 340 342 345 346 347 346 347 348 349 349 349 350 350 350 350 350 351 350 349 348 347 346 345 346 346 346 347 347 347 348 348 348 348 348 348 348 349 348 348 348 348 348 349 350 350 351 353 354 352 351 352 353 354 355 355 353 354 355 355 355 354 355 354 352 352 350 349 349
352 358 359 362 361 359 360 357 355 356 355 356 356 353 353 357 357 355 354 355 357 360 360 351 346 346 344 343 342 341 342 344 346 346 346 348 348 348 349 349 349 349 350 350 350 350 350 349 349 348 346 346 347 347 347 348 348 348 348 348 349 348 348 348 348 348 348 348 348 347 346 347 348 350 351 352 354 353 353 354 353 355 356 355 354 354 355 355 355 354 354 355 354 353 351 349 349
345 353 358 362 361 359 359 356 355 355 354 357 358 353 352 355 356 355 355 357 358 360 359 349 345 346 345 344 342 341 343 344 345 346 346 347 348 348 348 348 349 349 349 350 350 350 350 350 350 348 347 347 347 347 348 348 348 349 348 349 349 349 349 348 347 347 347 347 348 349 347 345 344 347 348 351 354 354 354 354 354 356 356 355 354 355 355 355 355 354 355 356 355 354 352 350 350
344 353 359 361 361 359 357 356 355 356 355 356 358 355 352 352 354 357 355 356 358 359 361 353 345 345 345 343 341 341 344 345 345 346 346 346 347 348 348 348 349 349 349 350 350 350 350 350 350 349 349 348 348 348 348 348 349 348 348 349 349 349 349 348 346 346 347 347 348 350 349 344 341 343 345 349 352 354 354 354 354 355 355 354 354 355 355 354 354 355 355 355 356 354 352 352 352
350 352 355 355 358 358 357 356 354 355 354 353 356 356 353 351 355 358 356 356 357 357 360 355 346 344 344 343 341 341 343 345 345 346 346 346 347 347 348 348 348 349 350 349 350 350 350 349 350 350 349 349 348 348 348 349 349 348 348 349 349 349 348 347 346 346 347 348 348 350 351 347 344 344 345 348 351 354 356 355 355 355 355 354 354 355 355 353 354 355 355 355 356 355 353 353 353
352 346 348 347 350 352 354 357 354 352 352 352 354 354 351 352 355 358 357 355 356 356 357 354 347 344 344 343 341 341 343 346 345 345 346 345 346 347 347 348 348 349 349 349 350 350 350 350 349 350 350 349 349 349 348 349 348 348 348 349 349 349 349 347 347 347 347 348 349 351 351 349 348 346 345 348 352 355 356 356 356 355 355 355 355 355 355 353 354 355 355 356 355 354 353 352 352
349 345 348 345 349 353 355 358 354 351 352 352 352 352 351 352 354 356 356 355 356 355 355 354 350 344 343 343 342 340 343 346 346 346 346 346 346 346 347 348 348 349 349 349 350 350 350 350 349 350 349 349 350 349 349 348 348 349 349 349 349 349 349 348 348 349 349 349 350 351 352 351 350 348 346 349 354 355 356 356 356 356 356 355 355 355 354 353 354 354 355 355 354 353 353 353 352
351 352 350 348 353 355 354 355 354 352 352 352 353 353 351 351 354 357 357 354 353 353 354 354 351 346 342 342 341 341 343 345 346 347 347 346 346 346 347 348 349 349 349 349 350 350 350 350 350 350 350 350 350 350 349 349 348 349 349 348 349 350 349 349 349 349 350 350 351 352 352 351 351 349 347 350 354 355 355 355 355 356 356 355 355 355 354 353 354 354 354 354 353 353 353 353 352
353 352 348 349 353 352 351 352 352 351 351 352 354 354 352 351 356 363 359 354 352 352 353 353 351 347 343 342 341 342 344 345 345 347 348 347 346 346 347 348 349 349 350 350 350 350 350 350 350 350 350 351 351 351 351 350 349 349 349 349 350 350 350 349 349 349 349 349 350 351 351 352 351 349 349 351 353 354 355 355 354 354 353 354 355 355 355 354 354 354 353 353 353 353 354 353 352
352 349 344 348 353 352 352 352 350 351 351 352 354 354 353 352 359 366 359 352 352 354 353 352 351 349 345 342 341 343 346 347 347 347 348 348 346 347 347 348 348 349 350 350 350 351 350 351 351 350 351 351 351 352 351 350 349 350 350 350 351 351 350 350 350 349 349 349 349 350 351 351 351 348 348 350 351 353 355 355 354 353 352 352 354 355 354 353 354 354 353 352 353 353 354 354 353
352 350 346 344 349 350 351 351 352 352 351 352 353 352 352 353 360 364 358 351 352 354 355 353 353 353 349 344 342 344 346 346 348 347 347 347 347 347 348 348 349 349 350 351 351 351 351 351 351 351 351 351 351 351 351 350 350 351 352 352 352 351 350 349 349 349 349 349 349 350 350 352 351 349 349 350 352 353 354 354 355 354 352 351 353 354 354 353 353 353 353 353 352 352 353 354 354
349 348 346 343 347 352 348 347 351 351 351 353 352 352 356 360 363 365 360 353 353 355 357 356 357 358 355 349 345 344 345 345 347 348 349 348 347 347 348 348 349 349 350 351 351 352 352 351 351 351 351 351 351 351 350 350 351 352 353 353 352 352 351 349 348 349 349 349 349 349 349 351 352 351 351 351 353 354 354 354 355 355 353 351 351 353 354 353 353 353 354 354 353 353 353 354 355
350 343 342 342 347 355 351 347 351 350 347 349 349 352 358 358 359 364 363 357 354 354 355 357 359 358 355 352 348 344 344 345 347 348 349 348 347 348 348 348 349 349 350 351 352 352 352 352 352 351 351 351 351 351 349 349 351 352 353 353 353 353 351 350 348 349 349 350 350 350 350 350 351 352 352 351 352 354 354 354 355 354 353 352 351 353 354 353 353 353 353 354 354 354 354 354 355
349 344 345 346 345 351 353 351 354 351 347 349 350 353 354 349 351 362 364 359 357 354 354 356 357 356 354 352 351 346 344 344 346 347 348 347 347 348 348 349 350 350 350 351 352 352 352 352 352 352 352 352 351 351 350 350 351 352 353 354 354 353 352 351 350 350 351 351 352 351 351 350 351 352 352 352 353 353 353 354 354 354 354 353 353 355 355 354 354 354 354 354 354 354 354 354 354
344 346 349 349 343 341 341 345 350 349 349 351 349 351 353 348 350 360 362 361 359 355 354 355 355 354 352 351 352 350 346 345 345 347 348 347 347 348 348 349 350 350 350 351 351 353 353 352 352 352 352 352 351 351 351 351 352 353 354 354 354 354 353 353 352 353 352 352 352 351 351 350 351 352 352 352 353 353 353 353 354 355 354 353 354 355 355 355 355 355 355 355 354 354 354 353 352
338 342 344 344 344 342 342 342 343 343 346 348 344 345 350 349 353 361 362 360 359 356 355 354 354 353 352 349 350 351 349 346 345 346 347 347 347 348 348 349 350 351 351 351 352 353 353 353 353 353 352 353 353 353 353 352 352 353 354 354 354 354 354 354 354 353 353 352 352 352 351 351 351 352 353 353 353 353 353 353 354 355 354 354 354 354 355 355 356 355 355 355 354 354 354 353 352
336 337 341 337 335 339 342 341 339 341 346 348 342 340 343 348 355 362 361 357 357 356 355 354 352 351 351 349 348 351 351 347 345 345 346 347 347 347 348 349 350 351 351 351 352 353 354 354 353 354 354 354 354 354 353 353 353 353 354 355 355 354 354 354 353 353 353 353 352 352 352 352 352 353 353 353 352 353 354 353 354 354 354 354 355 355 355 354 355 355 356 355 353 353 355 354 353
336 340 346 340 334 337 338 338 339 340 342 343 339 335 340 348 355 358 358 357 356 355 354 354 352 350 350 349 348 350 351 348 345 345 345 345 346 347 348 349 349 350 351 351 352 353 353 354 354 354 354 354 354 354 354 354 353 354 354 354 355 354 353 353 353 353 353 353 353 353 352 352 353 353 353 353 353 354 354 353 353 354 354 354 355 355 355 354 354 355 356 355 353 352 353 353 354
Wind_Speed
7 7 6 5 1 1 1 1 1 1 2 2 1 1 1 1 1 2 4 5 4 3 3 5 8 5 2 4 6 4 3 3 4 4 2 3 12 16 15 17 19 19 19 17 16 16 13 12 11 9 8 7 8 8 9 9 10 11 12 12 13 14 15 15 14 15 16 17 17 16 15 15 16 16 16 15 14 15 15 15 16 16 16 15 15 16 15 15 17 17 18 18 17 16 16 16 15
8 8 6 2 2 1 0 1 2 2 3 3 1 1 3 3 2 4 7 6 3 4 5 7 7 3 3 5 6 3 4 3 2 3 2 11 15 13 16 19 19 19 18 17 17 16 14 13 11 9 8 8 8 9 10 9 10 11 12 12 12 14 14 14 14 15 16 16 16 16 14 15 16 16 15 15 14 15 14 14 15 16 16 16 15 15 14 15 17 18 17 16 16 15 15 15 14
7 6 3 0 2 1 0 1 2 1 3 3 1 2 2 1 3 4 4 4 6 9 9 8 5 3 4 5 3 2 2 3 3 3 6 15 13 13 20 19 20 19 17 17 16 15 14 13 11 10 8 7 8 9 10 10 10 11 11 11 12 14 13 13 13 14 15 15 15 15 15 15 16 15 15 14 14 14 13 14 14 15 16 16 15 14 14 15 16 17 16 15 15 14 15 14 13
5 2 1 0 1 0 1 2 1 2 3 2 1 2 3 0 3 2 1 5 8 10 9 7 4 1 3 5 1 2 2 2 3 5 7 12 13 20 22 20 21 19 17 17 15 15 14 13 12 11 8 7 9 10 9 10 10 10 11 11 12 13 12 13 13 13 14 15 14 15 15 15 16 15 14 14 13 13 13 13 14 15 16 16 15 14 14 14 16 16 14 14 14 14 14 13 13
3 1 2 1 1 0 1 2 1 3 2 2 2 2 3 1 4 5 4 5 7 7 7 4 3 1 4 3 1 2 2 2 3 6 9 12 19 26 23 21 22 19 18 16 16 14 13 13 12 10 8 8 10 9 9 9 9 9 9 10 11 12 11 12 13 12 12 14 14 14 14 15 15 14 13 13 13 13 13 13 14 14 15 16 15 15 15 14 15 15 13 13 13 13 12 12 12
2 0 1 1 0 1 1 2 2 3 1 2 2 1 3 2 5 7 6 6 5 5 4 3 4 4 4 1 2 2 2 4 4 6 12 18 24 25 22 22 20 18 17 16 15 13 13 13 11 9 7 8 9 8 8 8 8 8 8 9 10 11 10 11 11 10 11 12 13 14 14 14 14 14 13 13 13 12 13 14 13 13 14 15 15 15 15 15 14 13 12 13 13 12 11 11 11
2 0 1 0 0 1 2 2 2 2 1 1 2 1 2 2 4 7 7 6 5 5 4 4 6 6 3 0 2 3 2 6 5 9 18 23 24 23 22 21 19 18 17 15 14 13 13 11 9 9 8 8 7 7 7 7 7 7 7 8 9 9 9 9 10 9 10 11 11 13 14 14 14 13 14 13 13 12 13 13 13 13 13 13 14 14 15 15 14 12 12 12 11 11 10 10 9
1 1 0 1 1 1 2 2 1 1 1 1 1 1 1 2 3 5 6 4 3 2 4 5 5 6 2 2 2 4 6 8 7 15 24 25 24 22 21 20 18 17 16 15 13 12 11 10 9 8 8 7 6 6 6 6 6 7 7 7 8 9 8 8 8 9 10 11 10 11 13 15 14 13 14 14 13 13 13 13 13 13 13 13 13 14 14 14 14 12 11 10 10 10 9 9 8
1 1 0 2 1 2 2 1 1 1 0 2 1 2 2 1 2 4 5 3 4 4 4 3 3 5 2 5 3 3 7 11 15 21 23 24 23 21 20 19 17 16 16 14 13 12 10 9 9 7 7 7 6 6 6 6 6 7 6 6 7 8 9 8 8 8 9 9 10 10 12 14 14 14 13 13 14 13 13 13 13 13 13 13 13 13 13 13 13 12 11 10 9 9 8 8 8
1 1 1 1 2 2 2 1 0 1 1 0 1 2 2 0 3 4 5 4 5 5 4 4 6 7 5 5 2 2 7 17 21 21 19 22 21 20 18 16 15 15 15 14 12 10 9 7 7 7 7 7 5 5 6 6 6 7 6 5 6 7 9 8 7 8 8 8 8 9 11 14 14 14 13 13 14 13 13 13 12 12 13 14 13 12 12 12 11 11 10 9 8 8 8 7 7
2 1 1 2 2 1 0 1 0 0 1 0 1 2 3 0 5 4 5 5 4 5 5 5 7 7 7 3 1 3 12 19 20 18 18 19 19 18 17 14 12 13 14 12 10 9 9 8 7 8 8 8 6 6 5 5 6 7 6 5 5 7 8 8 7 8 8 8 8 8 10 12 13 13 13 13 13 13 13 12 12 12 13 13 13 12 11 10 10 10 9 8 8 7 7 7 7
2 2 3 2 1 1 1 1 1 1 1 1 1 2 2 1 5 6 6 5 4 6 3 3 6 5 6 2 1 7 13 15 17 18 17 17 17 16 14 12 11 11 12 11 11 10 10 9 8 9 9 9 7 5 5 6 7 7 7 4 5 7 8 8 8 8 9 8 8 9 9 9 12 13 13 12 12 13 13 12 11 12 12 12 12 11 10 9 9 9 8 7 8 7 6 7 8
1 0 3 1 1 1 1 0 0 2 1 1 1 3 2 3 5 6 6 5 5 6 2 3 7 4 5 3 3 6 9 12 15 17 17 17 16 14 13 12 11 11 11 11 11 11 11 9 8 9 9 8 7 5 5 6 6 8 8 6 7 8 8 8 8 8 8 8 9 10 9 8 10 11 12 12 11 11 12 12 11 11 12 12 11 10 9 8 8 7 8 7 7 7 6 6 6
1 1 2 1 1 2 1 1 1 2 0 2 1 3 2 3 2 3 6 7 3 3 4 6 6 6 5 4 4 4 7 13 16 17 16 16 15 14 13 11 11 11 11 10 10 11 10 9 8 8 8 8 8 7 6 6 6 8 8 8 8 8 9 8 8 9 8 9 9 10 10 8 9 10 11 12 11 10 10 11 10 11 11 11 10 9 8 7 6 6 6 6 6 7 7 6 5
2 1 2 1 1 1 1 2 2 3 1 2 0 1 2 3 2 4 6 5 3 3 7 7 3 4 4 5 5 5 10 17 17 17 17 16 15 13 13 12 12 11 11 10 10 10 10 9 8 8 8 8 9 9 8 7 7 8 8 7 7 7 8 8 7 8 9 9 9 10 10 10 11 10 10 11 11 10 9 9 9 10 10 10 9 8 7 6 6 5 5 5 6 6 6 6 4
1 2 2 1 1 0 1 2 2 3 2 2 1 2 3 3 1 4 2 3 5 4 4 3 1 2 6 4 7 12 17 19 17 18 17 16 15 13 13 13 12 11 10 10 10 10 10 10 9 8 8 8 8 8 7 8 8 8 9 8 7 8 8 8 7 8 9 9 9 11 10 10 11 11 10 9 10 9 7 7 9 10 9 9 8 8 7 6 5 5 4 4 4 5 5 5 4
1 2 1 1 0 1 2 3 3 3 2 1 1 3 5 4 2 1 1 4 6 4 4 2 2 4 7 7 14 20 20 20 19 19 17 16 15 14 13 12 12 11 10 10 10 10 10 10 10 9 7 6 7 7 7 8 9 9 10 9 8 9 9 9 8 8 9 9 10 10 11 11 11 11 10 9 9 9 8 8 10 10 9 8 7 7 7 6 5 4 4 3 3 3 3 3 3
1 1 1 1 2 2 2 3 3 2 3 4 1 2 6 7 1 0 3 6 5 6 6 6 7 8 11 15 21 22 21 20 19 18 15 14 14 13 12 11 11 10 10 9 9 10 10 10 10 9 7 6 6 6 6 8 9 9 11 11 9 9 9 10 9 10 10 9 10 11 12 12 11 11 10 10 10 9 9 9 10 10 9 8 7 7 7 6 5 4 3 3 3 3 2 2 1
2 2 1 2 3 2 3 2 2 1 4 5 2 1 4 6 2 0 4 6 6 7 5 7 10 10 13 18 21 20 20 19 17 17 14 13 13 12 11 11 11 10 10 9 9 9 9 9 9 8 7 6 6 6 6 7 8 8 10 12 11 9 9 11 10 10 10 10 11 11 12 12 12 11 10 11 10 9 9 8 9 8 8 7 6 6 6 5 4 4 3 3 3 2 2 1 1
2 1 0 3 2 1 3 2 1 0 5 8 3 1 3 3 2 1 6 8 6 7 6 7 10 11 12 14 17 19 18 17 16 15 13 12 11 10 11 11 11 11 11 10 10 10 9 10 9 8 7 6 7 7 7 8 9 9 11 12 12 10 11 11 11 11 11 10 11 11 12 12 12 11 10 11 10 9 9 8 8 8 7 6 5 6 5 5 4 4 3 2 2 2 2 2 3
1 2 2 3 1 0 2 3 1 2 4 6 3 3 4 2 1 3 9 8 4 6 8 9 12 14 14 12 15 17 16 15 14 13 12 12 11 10 10 11 12 13 12 11 11 11 10 10 10 8 7 6 8 9 9 9 10 11 10 11 12 12 12 12 11 11 11 11 11 12 12 12 11 10 10 11 10 10 9 8 7 7 7 6 6 6 6 6 5 4 3 2 1 1 2 4 5
1 2 2 2 1 1 3 3 1 2 3 5 4 4 4 3 2 4 10 7 3 5 7 11 14 15 16 15 15 15 14 13 13 13 12 12 12 11 11 11 13 13 12 12 12 11 11 11 10 10 7 6 6 8 9 9 10 10 9 9 11 11 11 12 12 10 11 11 12 12 12 11 11 11 11 11 10 9 9 8 7 7 7 7 7 6 6 6 5 4 3 1 1 2 4 5 7
1 1 1 2 1 2 3 3 2 0 3 4 3 2 2 4 3 3 6 3 3 6 6 9 12 14 16 17 15 13 12 11 12 14 13 13 13 13 13 13 14 15 13 13 13 12 12 11 11 10 9 7 7 7 8 9 9 9 9 9 10 11 11 12 11 10 11 12 12 12 12 11 11 11 11 10 9 8 8 7 7 8 8 7 7 6 6 6 5 4 3 2 3 5 6 7 8
3 1 2 1 3 1 4 5 4 2 4 3 1 2 2 4 4 3 3 3 3 9 9 9 12 15 16 13 13 12 12 12 13 14 14 14 14 14 14 13 15 16 14 13 13 13 13 11 11 11 10 9 9 8 7 8 9 9 9 9 10 11 11 12 11 10 11 12 11 11 11 10 10 10 10 9 8 8 8 9 9 9 8 7 6 6 6 5 5 4 4 4 5 7 7 7 7
4 3 2 3 1 2 3 4 4 3 4 3 3 3 2 2 2 2 3 4 5 11 11 11 12 13 12 11 11 11 11 12 13 13 13 12 13 14 13 13 15 16 15 14 13 13 13 12 11 11 10 10 10 9 8 8 8 9 9 9 10 11 12 12 11 11 11 11 11 10 10 9 8 8 9 9 8 9 9 9 9 8 7 6 6 6 5 5 5 5 5 6 7 8 8 8 9
4 4 2 4 1 2 5 5 4 3 2 3 4 3 2 2 1 2 4 5 10 12 12 12 12 11 11 10 10 10 9 11 12 13 12 12 13 14 13 14 15 16 15 13 13 13 13 12 11 11 11 11 11 11 11 9 7 8 9 9 9 10 11 11 11 11 11 11 11 10 9 8 8 8 9 9 9 10 10 9 7 6 6 6 6 6 6 6 6 6 7 8 9 9 9 9 10
4 6 5 4 2 2 6 5 5 3 2 2 4 3 1 3 1 2 4 9 13 13 13 12 11 11 11 9 9 10 10 12 14 13 12 12 13 14 14 15 16 17 16 13 13 13 13 13 12 11 11 11 12 12 11 10 8 8 9 8 8 10 12 12 12 11 11 11 11 10 9 8 8 9 9 10 10 10 8 7 6 6 6 5 5 6 6 6 7 7 8 8 9 10 10 10 11
6 7 6 5 5 2 4 6 6 3 2 2 4 3 1 3 1 3 5 12 14 15 14 12 11 10 9 10 8 8 10 13 14 13 13 14 15 16 17 18 19 19 18 15 13 14 14 13 12 11 12 13 13 12 11 11 9 10 10 9 9 11 12 13 13 11 11 11 11 10 9 9 9 9 10 10 10 8 7 6 6 6 5 5 5 5 6 7 7 7 8 8 9 10 11 11 12
5 4 5 4 4 1 2 5 5 1 2 2 3 3 0 1 2 3 7 12 14 15 14 12 11 9 8 9 7 7 9 12 14 13 15 17 18 18 19 20 22 21 20 16 14 15 15 14 13 12 13 13 13 12 11 11 10 10 11 11 10 12 12 13 13 12 12 11 10 10 10 10 10 9 10 9 8 7 6 6 6 5 5 4 4 5 6 6 7 7 8 8 9 10 11 12 12
3 2 3 3 1 2 3 4 4 2 2 2 3 1 3 5 5 2 8 12 13 14 13 12 10 8 8 7 7 7 9 12 13 15 17 17 18 19 19 20 21 22 20 17 15 15 15 15 14 12 13 13 13 12 11 11 11 11 11 12 11 12 13 13 13 13 12 11 11 10 10 10 9 9 9 8 8 7 6 5 5 5 4 4 5 5 6 6 7 7 8 9 9 11 11 12 11
2 1 1 2 1 2 2 3 6 4 2 2 3 2 3 6 5 3 9 12 13 13 12 12 9 8 8 7 8 7 8 12 16 17 18 18 18 18 19 20 21 20 20 19 16 15 15 15 14 14 13 13 13 12 11 11 12 12 11 12 12 12 13 14 13 13 12 11 11 10 9 9 9 9 8 8 7 6 5 5 4 4 4 5 5 5 6 7 7 8 9 10 10 10 11 11 10
1 1 1 1 1 2 1 3 3 3 2 2 1 1 1 3 4 5 10 12 13 13 12 11 10 10 9 7 8 7 7 11 15 16 17 18 19 19 20 21 21 21 21 20 17 15 16 15 15 15 14 14 13 12 12 12 12 12 11 12 12 12 13 14 13 12 11 10 10 9 9 8 9 9 8 8 6 5 4 4 3 3 4 4 5 5 6 7 7 7 8 10 11 11 12 11 9
1 0 1 1 1 1 2 2 2 1 3 3 2 2 1 1 4 7 10 12 13 12 11 11 10 10 9 7 7 7 6 7 9 13 17 18 19 20 21 22 22 21 21 20 18 17 16 15 15 16 15 14 13 13 13 13 12 11 11 12 12 13 14 13 12 11 9 9 8 8 8 9 9 8 8 7 6 5 3 3 2 2 3 4 4 5 6 6 7 7 8 9 11 12 13 12 9
2 1 0 2 1 2 2 2 2 1 2 2 2 1 1 2 6 8 10 12 12 11 11 11 10 9 9 8 7 7 6 5 7 12 18 19 19 20 22 22 22 21 20 20 19 18 16 15 15 15 15 14 14 14 14 13 12 11 11 11 12 13 13 12 10 9 8 8 8 8 9 9 8 8 7 6 5 4 2 2 1 1 2 3 3 4 5 6 7 8 9 8 9 11 12 11 9
3 2 1 1 1 2 2 2 4 3 2 2 4 1 2 4 7 7 8 10 11 10 10 9 9 9 8 8 7 6 6 6 8 14 19 20 20 21 21 22 22 20 20 20 19 17 16 15 15 15 15 15 14 14 14 14 13 11 11 12 13 13 12 10 9 8 7 8 8 9 9 9 8 7 7 6 5 3 2 1 0 1 2 3 3 4 4 5 7 7 9 8 8 10 9 9 8
5 3 2 2 2 2 3 2 4 6 4 2 3 2 4 7 8 7 8 8 9 9 8 7 8 7 7 7 6 6 6 7 10 16 20 20 21 22 21 21 21 20 19 19 19 17 17 16 15 15 15 15 15 15 16 15 14 13 13 14 14 13 11 10 8 8 8 8 9 9 9 8 7 7 6 6 5 4 2 1 1 1 2 3 3 4 5 6 7 7 8 9 9 9 7 7 8
5 3 2 1 1 2 3 4 4 5 4 2 0 1 6 10 9 9 7 7 8 8 8 7 7 7 6 7 6 7 7 7 10 16 19 20 21 21 21 21 21 20 19 19 19 18 17 16 16 16 15 16 17 17 18 17 16 16 15 15 14 13 11 9 9 8 8 8 9 10 9 8 7 7 6 5 4 3 3 2 2 2 2 3 3 4 5 5 7 7 7 8 10 10 7 8 8
4 3 3 1 1 1 2 4 3 2 1 2 2 2 5 7 8 8 7 7 7 8 9 9 9 8 6 7 8 8 6 5 8 12 16 19 20 21 22 21 22 21 20 20 19 19 17 16 16 16 16 18 18 19 19 18 18 18 17 16 14 12 11 10 9 9 9 9 9 10 9 8 7 7 5 4 4 4 4 3 3 2 1 2 3 3 4 4 5 6 6 7 8 8 7 8 9
1 2 3 1 2 2 2 4 4 2 1 2 2 3 3 1 3 5 3 4 3 4 8 9 10 9 7 8 8 7 6 5 7 9 13 18 20 22 22 21 22 22 21 20 20 19 18 17 17 17 18 19 19 19 19 18 18 17 16 15 14 12 10 9 8 8 9 10 10 10 9 8 7 6 5 4 3 4 4 4 3 2 1 1 3 3 3 3 3 4 6 8 8 6 5 7 9
1 2 2 2 3 3 1 3 4 1 1 4 4 3 1 2 1 3 3 0 1 3 5 7 8 9 10 10 9 8 8 8 8 8 11 16 19 21 21 21 22 22 21 21 20 20 19 18 18 18 19 20 20 20 19 18 16 15 13 12 12 11 9 9 8 8 9 11 11 10 10 9 8 6 5 4 4 3 4 4 4 3 2 2 3 4 3 2 3 4 6 8 9 7 6 7 8
2 4 4 2 4 3 2 4 6 2 3 7 7 3 2 2 3 6 5 2 2 3 3 6 7 8 8 8 8 9 10 10 10 9 9 14 18 20 21 22 22 22 22 23 23 22 21 20 20 20 21 20 21 21 19 17 16 14 13 12 12 11 10 9 10 9 10 11 11 10 11 10 8 7 6 5 4 4 4 4 4 4 4 4 4 4 3 3 3 3 5 7 9 9 7 6 8
3 4 7 4 4 5 6 8 6 2 2 7 8 4 2 4 6 8 6 3 4 3 3 8 9 7 6 6 7 9 9 10 11 11 11 14 17 19 20 22 23 23 24 24 24 23 22 22 22 22 22 21 21 20 19 17 16 15 15 14 14 14 12 12 12 11 11 11 10 9 9 11 10 9 8 7 6 6 6 5 5 5 4 4 4 4 4 3 3 3 4 6 8 9 8 7 7
3 4 6 6 6 7 8 8 4 1 2 4 4 3 2 4 7 10 8 6 6 5 4 8 9 7 6 7 7 8 9 9 10 11 12 14 17 18 20 22 24 24 25 25 24 23 23 23 23 23 23 22 21 21 20 18 17 16 16 15 14 14 14 13 12 11 11 9 8 7 8 10 11 10 10 9 8 7 7 6 6 6 4 4 3 3 3 4 3 3 3 4 6 8 9 9 9
3 4 4 8 8 7 8 6 2 1 1 1 3 1 2 3 8 11 10 8 8 7 6 7 9 9 8 8 7 8 10 10 10 10 10 14 18 20 22 24 26 26 25 25 24 25 24 23 23 23 23 22 22 22 21 20 18 18 17 15 14 13 12 12 12 11 11 10 9 8 7 9 11 11 11 11 10 9 8 7 7 6 5 3 3 3 3 4 3 3 3 3 4 6 7 9 10
2 3 8 7 7 6 5 4 2 2 2 2 4 4 2 3 5 8 9 10 11 10 8 7 9 11 10 9 8 9 10 10 11 11 11 14 19 22 25 26 26 26 26 27 26 26 25 24 24 23 23 22 22 22 22 21 19 18 17 16 15 13 11 11 12 11 11 12 11 9 8 9 11 11 11 11 11 10 8 7 7 6 5 4 4 3 3 4 3 3 3 3 3 4 6 7 9
3 10 13 8 8 7 3 2 2 2 0 3 5 6 3 3 3 6 9 11 13 10 8 7 9 10 10 9 9 9 8 9 10 12 14 18 22 24 25 25 25 25 27 28 27 27 27 25 24 24 24 23 22 22 22 21 20 19 18 16 15 14 13 12 13 13 13 13 13 11 10 10 11 12 12 12 12 10 8 7 7 7 6 5 5 4 4 4 4 4 4 4 3 4 4 5 6
8 10 10 8 6 5 3 1 2 1 2 2 6 9 4 3 3 8 9 10 11 9 6 6 7 9 10 9 8 9 9 8 9 10 14 19 22 22 21 22 23 24 25 26 26 27 27 27 26 25 25 24 22 22 22 22 21 19 18 17 15 14 15 15 15 15 15 15 14 13 12 11 11 12 12 13 12 11 9 7 7 8 7 6 5 4 3 4 4 4 5 5 4 4 3 3 4
8 5 5 4 3 3 2 2 2 1 3 2 3 8 6 4 4 6 7 9 13 13 9 9 10 10 11 9 8 9 9 9 9 9 10 14 15 16 18 19 21 22 24 25 26 27 28 28 28 27 26 25 24 24 23 22 22 20 19 18 15 15 15 16 16 16 16 16 16 14 13 12 12 13 14 14 13 11 9 8 8 9 9 8 6 5 5 4 4 4 5 5 4 4 4 3 3
4 5 6 4 2 2 1 2 2 2 3 1 2 5 5 5 5 5 8 11 15 15 11 11 12 12 11 10 9 8 8 9 9 8 9 9 12 15 18 19 20 22 24 26 27 27 28 29 29 28 28 26 25 25 24 23 23 21 20 18 16 16 16 17 17 17 17 17 17 15 14 14 14 15 15 15 15 12 10 9 8 9 9 9 8 7 6 5 4 4 4 4 4 4 4 4 3
4 6 5 4 3 1 1 2 2 3 3 1 3 4 3 4 4 6 11 14 14 13 11 11 11 12 12 11 10 8 8 9 9 9 9 9 12 17 19 21 22 23 25 26 27 28 28 28 29 29 29 28 27 26 25 25 24 22 20 18 17 16 17 18 18 18 17 18 17 16 15 14 14 15 16 16 14 13 11 10 8 8 9 10 10 8 7 6 5 5 5 5 5 5 5 5 5
5 4 4 5 4 3 3 3 2 2 1 1 4 3 3 2 3 4 7 11 11 10 9 8 8 9 9 8 9 8 9 9 8 9 10 11 16 20 20 22 23 24 25 26 26 27 28 28 29 30 29 28 28 26 26 26 25 22 20 19 18 17 17 18 19 19 18 18 18 17 16 15 14 15 15 15 14 13 12 11 10 10 9 10 11 9 7 6 6 6 6 6 6 6 6 6 6
2 2 4 2 4 5 2 2 4 3 1 1 2 2 3 3 3 3 1 5 8 9 7 6 5 6 7 7 8 8 9 9 9 9 10 12 18 21 21 22 23 24 25 25 25 27 28 28 29 30 29 29 28 27 27 27 26 23 20 20 19 18 17 18 19 19 18 18 17 17 17 16 15 14 14 15 14 13 12 12 11 11 10 10 11 10 9 8 7 7 7 7 7 7 7 7 6
2 2 3 4 3 6 4 1 1 2 1 1 2 2 3 2 3 1 3 5 7 9 9 8 5 5 7 7 8 9 9 10 10 10 11 13 17 20 21 23 23 24 25 26 27 28 29 29 29 29 28 28 27 26 26 27 26 23 21 20 20 19 19 19 19 19 18 17 17 16 16 16 16 15 15 15 15 14 13 12 12 11 10 11 11 11 10 9 9 8 8 8 7 7 7 7 7
4 2 5 2 2 3 4 2 2 2 1 2 2 3 3 1 2 1 4 6 8 10 11 10 7 7 8 7 7 8 9 10 11 11 11 13 17 20 21 23 25 26 27 28 29 30 29 29 29 29 28 28 28 27 26 27 26 24 22 21 20 20 20 19 19 18 17 17 17 17 17 17 17 16 16 16 15 15 15 14 13 12 11 12 12 11 11 10 10 10 10 9 8 8 9 8 8
5 3 3 4 2 1 1 2 1 1 1 3 2 3 3 3 3 3 7 9 10 11 11 12 12 10 10 9 7 7 8 9 9 10 10 11 16 20 22 23 24 26 27 29 29 29 28 29 29 29 29 29 28 27 27 26 26 25 24 22 21 20 20 19 18 17 17 18 18 17 17 17 17 16 16 16 16 16 16 16 15 13 12 13 13 12 12 11 11 11 11 11 11 10 10 10 9
4 2 1 3 3 3 1 2 2 3 2 2 1 2 2 4 3 6 11 11 12 12 12 13 15 13 11 10 8 6 7 8 9 10 9 11 16 21 23 25 26 27 28 27 27 27 27 28 28 28 28 27 27 27 27 27 26 25 24 23 22 21 21 20 18 17 17 18 18 18 18 17 16 16 17 17 17 17 16 16 16 15 14 14 14 14 14 14 13 13 13 13 12 11 11 11 9
2 2 2 1 1 2 1 1 1 3 2 2 1 1 3 3 2 5 9 10 12 14 14 13 14 14 12 11 9 7 7 8 9 10 10 11 16 20 23 25 26 27 27 26 26 27 28 28 28 28 27 27 27 28 27 27 27 26 25 24 23 23 22 22 20 18 17 17 18 18 18 17 17 17 17 18 18 17 17 17 16 16 15 15 15 15 15 15 15 14 14 13 13 12 12 11 10
5 3 3 2 1 1 1 2 1 1 3 3 2 1 4 3 2 4 6 7 9 12 13 12 12 14 14 12 11 9 8 8 9 10 10 11 15 19 21 23 23 24 24 25 26 26 26 27 28 28 27 27 28 28 28 28 27 27 26 25 24 23 22 22 21 20 19 18 18 19 18 18 18 18 18 18 18 17 17 17 17 17 17 16 15 15 15 15 16 15 14 13 13 13 13 11 10
Wind_Direction
141 147 144 143 153 343 3 80 59 340 75 75 2 17 277 269 123 104 109 127 127 153 165 128 135 141 149 149 159 152 100 148 162 147 205 180 143 144 147 151 152 152 152 146 139 134 131 131 130 131 126 137 152 144 128 115 110 107 104 102 102 103 102 101 102 103 108 113 112 113 111 106 112 114 106 105 107 106 106 105 106 106 106 106 104 103 104 102 99 96 95 95 92 91 92 92 90
141 144 141 140 291 316 300 118 81 358 61 72 325 221 275 323 124 150 155 157 143 136 123 120 121 79 55 117 129 100 54 30 109 119 111 138 138 139 145 151 151 150 150 143 138 135 134 134 133 138 141 157 155 138 128 116 111 106 104 104 104 103 102 101 101 103 109 116 118 119 116 109 115 116 107 104 105 104 102 99 100 102 102 101 99 102 103 99 97 95 94 94 93 93 93 91 91
140 148 149 227 293 229 192 65 86 50 80 94 293 260 302 12 173 180 174 141 121 121 115 117 106 68 67 78 73 54 55 27 82 95 122 141 141 145 148 149 148 148 146 142 140 138 137 136 138 148 155 159 146 136 127 116 110 103 104 104 105 104 103 104 103 105 110 119 123 123 119 114 118 118 108 104 104 104 102 99 99 99 100 99 99 101 101 98 96 93 92 92 93 92 91 90 89
140 179 225 331 339 267 33 58 104 100 109 126 138 287 326 174 154 102 79 112 120 121 122 126 94 33 88 89 70 73 89 49 108 118 140 160 153 147 149 148 148 149 147 145 143 141 139 140 145 149 151 142 132 131 123 115 109 103 104 105 108 106 106 107 107 109 112 119 122 121 119 117 120 118 109 106 107 106 104 102 98 97 99 102 103 103 100 97 94 92 91 92 93 92 91 91 89
116 294 254 229 40 294 56 84 94 88 143 179 138 298 330 96 112 93 90 101 112 118 126 123 86 49 85 91 102 110 115 95 138 137 139 158 148 145 149 150 150 150 150 149 147 146 146 146 146 144 142 130 123 122 116 112 108 104 104 106 110 109 109 110 112 115 115 118 118 119 119 118 120 118 111 109 109 108 106 103 100 100 102 106 107 105 101 96 92 90 90 92 93 93 93 94 94
124 60 234 233 74 185 91 75 86 70 201 172 129 291 348 61 116 110 101 86 69 79 96 86 103 108 81 36 65 107 170 127 141 147 137 145 146 147 151 151 151 150 150 149 149 150 147 144 138 136 133 123 116 115 114 111 109 108 106 106 113 114 112 113 116 116 113 113 116 120 118 118 121 120 114 111 111 110 107 104 105 104 103 107 108 106 104 101 96 93 92 93 93 93 93 93 93
180 265 358 335 255 155 69 62 102 74 305 158 142 207 4 46 126 120 114 105 65 47 63 94 114 106 80 345 72 27 118 135 143 149 143 143 146 149 152 153 149 148 149 148 149 146 141 137 133 132 127 120 116 112 110 108 110 112 111 110 114 118 115 114 116 117 114 111 114 119 120 121 123 121 117 115 114 111 108 107 108 106 104 107 107 106 107 106 103 99 96 95 97 97 95 92 89
209 328 305 68 14 26 75 54 85 123 308 304 203 205 30 69 129 120 122 120 110 93 90 119 116 96 45 36 73 7 73 122 143 143 142 142 146 150 154 153 146 146 149 147 143 138 135 135 134 132 127 121 115 115 117 119 120 116 115 119 121 123 122 117 117 122 122 119 117 122 126 126 126 124 120 119 116 113 111 108 108 108 109 108 106 105 105 105 102 100 98 97 102 103 96 91 87
358 22 141 68 45 14 68 61 39 143 308 331 311 308 355 94 121 107 109 90 118 119 94 138 110 101 99 55 75 345 75 119 134 136 140 143 148 151 155 153 146 146 148 147 141 137 134 136 134 130 131 121 118 138 145 141 139 127 121 129 131 133 132 123 121 127 124 119 121 127 130 129 129 126 122 121 118 116 115 110 107 109 112 109 105 101 99 99 98 98 100 101 104 104 96 89 84
21 35 86 71 77 26 29 53 8 105 263 313 4 303 312 79 105 98 106 106 116 110 94 92 80 107 121 75 57 336 110 129 130 131 139 144 149 153 156 154 148 145 147 148 142 139 132 128 122 118 117 108 125 166 161 151 150 138 128 134 137 140 139 129 122 124 119 114 123 129 128 130 131 127 125 122 120 120 117 113 109 110 112 111 105 101 99 98 99 101 105 106 105 102 96 89 78
12 354 73 74 61 69 99 76 21 63 267 343 52 297 298 44 101 93 99 107 91 100 120 89 90 114 103 74 38 115 130 132 130 132 142 147 151 155 155 151 146 143 145 144 138 135 125 118 114 115 118 125 159 175 162 160 159 147 137 138 138 140 142 136 128 124 120 118 125 127 124 129 130 128 126 123 123 123 119 115 111 111 112 110 106 103 104 104 103 105 109 110 105 101 95 90 78
24 340 48 86 72 150 195 91 110 106 305 15 42 316 324 69 110 124 118 122 113 106 134 104 135 139 89 72 110 129 134 133 135 139 146 149 150 154 152 146 141 140 140 137 135 133 125 120 123 130 135 148 168 169 164 165 157 142 134 135 142 145 143 142 137 131 131 129 128 125 124 126 127 126 125 125 126 124 122 119 115 113 109 106 105 105 107 108 106 105 110 108 99 97 94 89 79
67 348 52 75 153 161 256 19 159 115 348 335 221 308 353 72 111 141 123 117 122 116 136 127 146 134 87 101 118 142 141 138 143 144 149 149 150 153 152 146 140 140 139 140 138 132 127 125 136 142 141 151 158 160 171 164 145 128 133 154 159 153 143 142 142 141 142 137 132 127 125 127 125 125 125 127 128 126 122 120 119 114 107 104 105 106 108 110 111 110 112 107 99 99 99 96 82
121 171 86 63 143 139 193 155 183 139 216 276 219 309 360 78 115 127 115 113 98 119 120 116 124 97 102 131 133 170 147 143 147 146 150 148 150 153 151 150 144 144 144 145 139 132 131 130 139 139 136 151 157 159 160 156 142 128 143 169 164 150 141 142 147 151 149 140 138 130 131 138 130 125 127 130 130 128 124 122 121 114 107 107 107 109 113 117 119 121 120 114 110 104 100 102 92
147 124 90 86 57 85 201 158 171 146 201 256 161 320 61 84 134 93 107 122 89 117 107 106 110 88 145 167 159 177 146 143 148 148 150 145 147 149 150 150 147 148 148 147 141 138 136 132 133 130 141 160 162 159 155 152 142 130 142 161 156 147 147 148 149 151 146 141 140 132 138 143 132 130 130 132 131 126 124 124 125 118 108 106 109 114 119 123 128 133 131 124 119 107 100 102 104
137 99 67 47 23 300 203 155 159 144 207 246 343 291 88 58 21 90 112 141 120 130 95 111 203 115 158 159 144 150 140 140 146 149 145 138 139 141 145 148 149 150 148 149 145 142 138 135 130 131 153 167 155 150 156 146 131 130 140 149 149 147 151 152 150 150 145 143 141 137 143 142 133 133 133 132 126 118 116 119 130 128 113 108 113 122 126 128 135 141 139 134 127 113 104 103 105
63 79 63 8 211 210 192 173 177 151 180 186 319 281 120 92 348 73 109 96 114 113 64 76 53 103 131 127 135 139 137 137 142 143 136 133 136 138 143 146 148 147 147 148 145 143 140 137 133 139 163 163 139 143 160 143 128 137 143 146 145 147 149 145 150 152 147 144 141 141 142 138 133 133 134 128 114 107 103 106 124 129 122 123 128 133 134 133 138 139 138 138 138 125 112 103 96
65 85 120 266 210 203 236 184 173 143 149 159 218 260 134 125 59 44 96 79 89 83 71 78 68 84 109 121 133 136 136 136 139 138 133 136 140 140 143 144 145 145 145 144 147 147 144 143 141 151 166 149 133 143 158 141 133 144 143 141 142 149 146 143 156 154 148 147 142 143 141 139 137 135 132 122 112 108 103 101 113 122 127 132 134 134 132 134 138 134 135 139 153 146 122 104 87
129 121 121 255 217 206 274 198 153 158 152 147 176 298 122 134 135 156 127 117 111 95 91 97 92 101 112 122 132 136 138 137 141 142 141 147 148 145 143 146 148 148 149 147 153 155 151 149 148 158 164 147 138 145 153 137 135 144 140 138 141 150 146 148 159 152 153 154 144 144 143 140 137 133 128 121 119 113 105 102 106 112 118 120 122 127 129 135 136 132 137 141 153 162 156 186 254
158 116 220 251 232 234 271 226 187 248 149 140 149 35 85 141 164 133 133 130 129 129 138 125 122 131 128 130 134 139 141 140 145 147 150 154 152 147 145 151 156 158 158 156 157 159 158 154 153 160 163 151 141 144 146 133 132 140 139 139 144 150 150 152 155 150 157 156 143 144 143 138 134 130 129 126 123 115 109 108 107 109 110 106 108 114 117 119 117 121 128 133 153 185 212 246 265
152 157 215 238 203 5 281 244 306 35 126 132 129 106 105 161 138 119 135 132 151 167 168 152 146 147 140 140 141 144 146 144 149 152 156 157 154 151 149 155 162 163 161 160 159 160 161 158 158 157 161 161 142 139 141 130 131 139 140 138 140 147 151 149 148 150 155 151 143 144 144 138 133 131 132 130 126 119 117 116 116 117 113 106 102 97 98 98 100 110 118 130 174 235 254 270 274
133 192 200 251 160 132 261 231 187 40 99 112 117 123 131 138 82 129 144 146 181 171 174 160 152 153 148 146 145 147 149 149 154 158 162 162 158 155 154 157 162 165 163 163 162 159 161 162 163 156 160 172 143 138 141 134 134 138 138 134 136 143 148 142 142 148 149 148 145 145 146 140 134 134 135 133 127 123 124 123 119 116 109 101 96 89 87 86 87 93 96 84 323 299 293 291 290
204 270 124 278 296 146 204 187 163 82 99 109 128 129 111 118 115 130 134 165 179 128 146 155 147 148 145 144 146 151 154 156 161 165 169 166 163 161 159 162 164 165 166 169 166 162 163 164 166 161 161 164 146 145 146 141 140 135 131 134 139 142 143 141 146 153 150 150 149 147 145 139 138 140 140 134 127 125 124 120 117 113 107 100 93 84 76 71 70 67 50 12 337 322 314 310 307
207 281 120 218 291 157 173 166 154 130 111 109 93 83 82 127 140 118 123 232 171 121 131 141 139 141 142 145 149 153 156 161 168 170 173 170 167 166 163 168 169 167 168 171 169 167 167 166 167 166 162 159 154 157 154 147 141 132 129 133 137 139 143 148 154 158 151 150 151 147 144 142 144 143 139 132 126 125 124 123 119 113 107 99 88 76 68 63 54 40 19 358 345 340 337 333 325
214 210 152 155 211 173 150 133 120 99 110 122 102 87 59 104 126 127 182 211 140 124 131 136 138 141 145 153 154 153 156 164 170 170 172 170 166 167 169 173 173 171 172 174 173 172 171 167 166 166 162 158 159 160 156 152 143 136 135 136 137 141 149 152 154 155 151 149 148 145 146 146 145 142 136 130 130 129 128 126 119 112 102 92 81 68 60 50 34 21 10 358 355 353 350 346 332
207 171 129 117 111 152 130 104 106 102 106 139 127 101 31 1 54 176 192 162 132 128 134 141 146 148 152 159 158 156 158 166 172 171 169 166 165 169 174 177 177 177 177 178 178 176 174 169 163 162 163 160 161 161 158 157 152 145 141 140 144 148 152 152 150 150 149 147 145 146 150 149 146 143 137 133 133 132 129 124 116 107 93 81 69 54 41 27 18 13 6 358 357 352 349 346 333
141 118 86 81 27 102 125 109 123 123 84 127 128 120 359 351 75 187 183 146 134 130 137 148 152 155 160 161 163 162 163 173 177 172 161 160 166 171 174 179 181 181 181 181 183 181 176 171 164 164 166 161 162 165 163 160 157 153 147 143 147 150 151 150 147 146 147 146 145 148 152 152 151 146 139 135 134 133 128 123 114 104 88 72 56 40 28 19 15 11 3 356 351 348 346 343 334
119 119 91 54 11 47 128 130 146 141 76 89 93 105 346 360 91 214 176 148 139 136 144 156 158 160 164 163 165 166 170 177 177 173 165 166 173 174 176 182 183 184 186 185 185 183 179 176 171 169 169 161 163 169 167 164 159 155 153 149 149 151 151 150 149 149 148 146 146 149 151 151 150 145 140 137 136 133 128 123 114 101 83 63 44 31 26 19 13 9 2 352 346 345 342 337 331
121 123 98 57 12 359 141 126 158 148 82 134 97 90 261 235 245 235 167 153 143 141 148 159 163 162 164 168 168 172 177 176 177 182 181 178 179 180 182 185 186 186 190 187 184 185 183 184 180 175 174 167 167 173 168 163 162 157 155 155 155 157 157 154 154 154 153 152 150 151 150 148 147 144 143 141 139 134 129 122 108 91 71 53 38 28 25 17 9 5 358 347 341 340 336 333 330
85 46 88 104 84 200 137 125 179 131 84 183 156 151 209 210 254 241 158 154 142 144 153 159 165 164 167 174 173 179 180 177 184 191 189 182 179 184 185 187 189 189 189 185 184 186 185 188 187 181 180 173 171 175 170 164 162 159 156 159 162 162 162 160 158 157 156 156 155 155 154 152 149 149 149 147 141 134 126 115 98 79 56 42 33 25 17 8 1 354 346 340 337 334 332 335 334
64 348 55 112 191 183 142 179 187 143 115 185 157 202 206 206 248 195 158 155 146 149 157 159 165 167 170 179 179 183 185 186 191 191 189 183 178 184 187 187 190 190 187 183 184 188 187 190 190 186 184 177 175 175 171 165 161 159 159 162 166 165 164 163 160 158 156 155 156 159 161 159 155 153 154 150 142 131 121 109 88 64 45 34 25 17 6 359 352 343 338 335 333 331 335 341 338
47 259 311 330 201 166 184 221 210 151 141 102 106 201 186 209 223 174 160 157 153 155 159 162 165 168 171 181 184 185 188 190 190 186 185 181 177 183 188 189 190 189 188 184 183 188 190 191 190 191 189 182 178 173 168 165 160 159 160 162 166 166 163 161 159 157 154 155 158 162 164 162 156 152 152 149 141 132 120 104 79 56 41 33 25 11 359 354 350 342 337 334 332 333 339 343 339
355 91 192 250 165 137 169 196 287 5 124 76 46 150 142 245 196 169 163 160 158 159 162 164 163 167 172 180 189 187 183 182 182 180 179 177 178 184 189 191 192 190 189 186 183 187 190 190 192 194 193 186 181 174 169 168 164 160 158 159 162 162 160 158 157 156 156 159 164 164 161 156 152 148 150 151 147 141 128 107 83 56 36 31 27 9 355 353 353 342 335 336 335 334 337 341 337
304 47 107 255 181 142 142 145 263 305 102 79 71 118 250 186 167 165 165 160 161 165 168 168 165 167 173 179 190 189 180 176 180 177 174 175 177 184 189 192 193 190 188 188 188 189 188 188 191 195 195 189 183 177 174 173 170 164 157 156 157 156 157 158 158 159 159 163 166 162 156 152 150 149 154 158 159 162 156 131 100 45 20 15 15 1 352 354 351 339 332 334 337 335 335 337 335
192 179 157 258 159 152 148 141 193 178 95 93 122 229 270 151 154 163 165 162 164 171 172 171 169 170 173 179 188 189 181 186 191 180 174 172 174 181 188 190 192 190 187 189 191 190 187 187 190 193 193 189 184 180 177 175 174 170 164 161 158 157 158 161 164 165 162 165 166 162 157 153 153 156 164 172 176 182 179 161 172 355 351 350 357 349 346 347 343 338 334 332 337 341 340 337 334
163 157 139 179 153 150 150 139 184 161 111 105 161 191 171 155 160 162 161 162 166 173 172 170 173 173 175 181 188 187 187 198 195 181 173 171 173 179 185 187 189 189 187 190 190 190 189 188 190 192 192 188 184 180 177 175 174 173 172 169 167 165 164 166 169 169 165 164 165 165 161 158 159 164 171 180 186 191 192 201 247 316 338 334 341 343 343 341 338 340 342 340 340 346 354 351 342
118 116 113 164 154 121 110 125 175 166 125 110 42 155 166 164 164 161 151 151 164 174 176 177 179 179 179 184 188 189 196 200 187 178 173 169 169 175 181 184 186 185 188 191 190 190 191 192 193 192 190 187 183 178 176 175 175 176 177 177 175 173 174 175 175 174 168 165 167 169 165 163 166 169 175 186 195 207 215 219 244 297 331 326 329 338 338 338 342 346 350 348 343 348 8 13 3
95 131 141 137 196 133 83 116 150 183 111 102 41 84 167 172 164 161 144 144 171 184 183 186 186 185 182 184 189 192 194 181 165 167 167 164 163 170 177 181 183 184 188 192 192 191 193 195 195 191 187 185 181 178 176 175 177 178 180 182 182 182 183 182 179 176 173 170 173 174 172 171 174 176 182 193 210 222 227 227 243 284 318 318 317 327 333 337 348 355 357 355 351 355 12 20 16
88 115 127 181 222 121 87 100 95 20 24 130 128 117 147 211 163 170 146 129 173 199 196 195 189 187 187 187 189 186 177 163 161 162 163 162 161 166 174 179 183 186 190 193 193 192 193 196 195 190 186 183 179 178 178 176 178 180 182 185 185 186 189 188 186 184 183 184 184 185 186 185 183 185 189 200 220 227 232 236 244 266 280 298 298 305 319 338 1 11 10 7 6 10 22 24 19
183 126 124 202 198 144 115 117 112 75 98 136 141 118 84 331 313 241 264 42 269 252 224 212 197 192 194 191 183 176 172 169 169 166 163 162 160 165 173 179 182 185 190 194 194 194 194 196 195 190 186 184 181 180 179 178 176 177 181 185 187 191 195 196 198 198 196 195 196 198 200 198 197 198 204 214 228 236 234 238 249 260 267 277 284 292 302 334 6 14 17 17 19 23 34 40 36
243 179 185 199 182 160 97 115 125 105 117 134 128 103 287 240 199 233 246 261 288 282 232 217 213 206 196 189 181 175 173 172 170 168 165 163 164 169 174 178 181 184 190 194 195 194 194 195 194 191 188 185 184 182 182 181 179 180 183 187 192 200 206 208 210 209 204 202 203 206 207 209 210 211 218 227 230 231 225 235 256 260 268 276 277 287 298 321 352 3 16 23 26 28 36 53 57
301 217 204 187 157 141 117 127 127 96 181 162 149 154 228 208 204 219 222 241 275 289 231 210 211 207 191 187 186 179 175 173 172 170 170 170 170 169 172 177 180 184 191 195 196 195 193 193 192 191 190 188 188 187 186 186 187 189 190 192 195 198 204 211 213 209 204 203 203 206 209 213 217 219 223 227 227 227 226 242 260 257 268 282 278 286 296 313 340 356 9 20 27 29 37 55 64
298 245 198 151 128 130 135 144 138 130 197 190 184 178 171 195 217 219 213 228 251 276 261 217 205 197 192 193 186 177 176 174 175 173 171 172 170 168 172 178 182 187 192 194 196 195 193 192 191 191 193 192 192 192 192 193 195 198 197 198 200 199 204 211 212 209 206 206 205 208 212 213 218 222 224 225 226 228 235 249 254 250 264 281 276 281 294 310 325 336 351 10 23 26 36 49 57
267 275 141 126 122 130 143 141 108 27 88 170 218 154 113 208 218 211 205 220 242 259 261 227 204 196 195 196 186 178 178 173 172 174 173 174 174 174 176 180 184 188 191 192 194 194 194 193 192 193 195 195 195 196 198 200 200 201 201 203 205 206 211 211 207 208 211 212 214 217 220 217 217 219 221 223 225 229 239 248 246 247 260 269 262 265 284 300 307 315 328 348 9 18 28 41 49
270 61 82 101 106 109 129 126 82 27 58 207 211 161 153 248 218 196 197 215 231 238 242 226 204 198 196 194 187 182 180 176 173 174 176 178 180 182 182 181 183 186 189 191 193 194 195 195 194 195 197 197 197 199 202 204 204 203 204 205 208 211 217 212 205 207 211 213 216 220 225 222 218 218 219 221 223 226 235 242 241 247 256 252 246 252 271 292 299 300 311 321 340 360 15 33 44
127 96 79 66 66 62 54 78 79 65 138 217 194 171 195 267 203 185 196 212 222 224 227 222 204 197 195 193 188 181 179 179 178 177 178 181 185 188 185 180 180 184 188 192 192 194 195 196 196 198 199 199 200 201 203 205 206 207 208 208 209 210 211 211 209 209 210 213 216 219 224 225 222 219 219 218 217 218 225 234 239 245 249 242 241 249 264 285 290 286 298 305 309 331 355 22 37
124 99 79 63 56 47 31 27 78 117 255 236 173 171 195 282 212 197 197 197 208 215 212 208 201 196 195 193 188 181 177 179 181 180 181 184 186 187 183 178 178 181 185 188 190 192 194 196 198 199 201 201 202 203 205 207 208 209 211 211 211 210 207 207 209 209 209 212 215 219 223 226 225 220 217 215 212 215 224 232 237 241 244 241 244 252 263 284 288 279 285 295 306 319 335 360 19
123 102 102 84 28 12 30 4 36 176 258 291 164 164 176 236 233 209 200 184 193 206 203 191 193 195 195 192 188 183 179 179 179 181 180 178 177 178 180 178 177 177 180 184 188 191 193 195 197 198 201 203 203 204 206 208 209 210 213 215 217 216 212 210 211 213 213 214 215 219 223 225 223 219 214 212 212 216 225 231 234 239 244 245 248 257 263 276 286 279 279 288 308 322 322 330 340
106 111 120 99 24 9 13 330 333 231 243 295 152 163 180 234 243 207 200 197 198 200 195 189 190 191 192 190 186 182 179 179 179 177 174 171 171 175 178 178 176 177 180 184 187 189 191 193 195 197 199 202 204 204 206 208 210 211 214 217 220 222 222 220 220 222 222 222 220 220 222 222 220 216 212 212 213 216 224 230 235 243 248 248 249 256 259 258 266 274 277 285 306 319 311 309 316
150 144 140 133 114 90 238 270 302 269 268 66 135 167 210 263 259 206 197 202 203 196 191 189 185 188 192 188 182 178 178 180 178 176 173 174 178 178 179 179 179 181 183 184 186 188 190 192 194 197 199 202 204 205 208 209 209 211 215 219 222 224 226 226 225 227 228 228 226 224 223 222 221 218 216 217 217 218 226 234 240 251 253 248 245 247 251 250 256 266 273 284 298 306 302 302 309
174 166 143 145 151 158 187 206 210 236 283 87 128 168 203 208 262 247 209 201 195 188 192 190 180 182 181 177 177 175 179 181 177 177 178 180 182 181 181 181 183 185 185 185 186 188 189 191 194 196 198 200 203 205 208 208 209 212 217 222 224 228 231 229 228 230 231 230 229 227 225 224 225 225 225 226 223 224 233 237 242 253 255 246 240 241 246 248 254 262 269 280 286 289 295 299 302
199 126 113 161 177 153 126 172 183 160 128 165 170 221 230 202 247 282 212 186 179 175 191 196 179 164 154 164 179 179 181 182 177 178 182 185 184 182 182 184 186 187 186 186 188 189 190 193 195 197 200 201 203 205 207 208 211 215 220 222 226 231 233 231 230 231 232 232 231 230 227 227 230 234 235 233 230 232 237 239 244 253 253 245 238 238 243 246 252 260 268 278 280 279 285 290 294
157 134 172 218 175 130 109 137 201 99 114 239 203 253 295 303 283 273 127 159 172 176 190 197 190 166 161 170 181 186 184 180 180 181 182 184 184 185 186 186 186 187 188 189 191 193 194 195 196 197 200 202 204 207 208 209 212 218 222 224 227 229 231 232 231 231 232 232 232 233 232 231 234 239 240 236 235 238 241 244 248 252 250 241 234 235 242 245 249 256 263 271 274 271 274 278 284
129 188 202 193 53 88 107 109 7 55 208 264 218 245 285 306 287 235 149 170 183 186 190 190 190 185 183 181 178 187 188 181 182 182 182 183 183 186 188 189 189 189 190 192 195 197 197 198 199 199 200 203 206 208 210 210 213 218 222 225 226 227 228 229 230 231 233 234 234 235 234 235 238 241 240 237 237 240 244 247 249 250 246 239 233 235 242 245 247 252 259 266 268 265 266 269 275
115 183 191 113 77 299 87 125 150 125 227 279 257 260 256 206 218 197 183 189 189 189 188 188 191 190 191 187 175 181 185 180 180 180 182 184 186 188 189 190 192 192 193 195 196 197 198 200 202 203 204 207 208 210 211 213 215 218 222 224 226 227 226 226 227 231 233 236 238 237 236 238 240 240 238 238 240 242 246 246 246 247 244 236 233 237 242 245 248 253 259 265 266 262 261 264 268
69 92 148 108 150 198 186 159 160 151 206 261 285 304 264 233 231 197 196 197 187 185 188 191 193 189 188 187 175 170 178 178 180 181 182 185 188 191 191 191 192 194 196 197 196 196 198 201 203 205 207 208 208 209 211 214 216 219 221 223 225 227 226 227 230 233 234 237 239 238 238 239 241 240 239 240 243 246 248 246 244 246 243 237 239 244 248 249 251 256 263 268 266 260 258 263 265
104 108 196 218 185 174 193 210 147 133 158 200 208 289 277 276 265 217 210 200 187 186 189 193 194 188 186 185 175 165 173 180 181 182 182 184 188 192 194 195 194 195 196 196 196 198 200 201 203 205 206 207 208 210 211 214 217 219 221 223 226 227 228 230 233 236 238 239 239 239 240 241 243 242 241 242 245 247 248 246 246 246 244 242 247 251 252 252 254 257 264 269 265 259 259 265 268
129 131 182 219 275 132 176 284 306 116 135 171 173 230 279 292 299 263 239 206 195 192 189 191 193 190 187 184 177 166 168 181 182 180 181 182 186 191 195 196 195 194 195 196 197 198 199 202 204 205 206 207 210 210 211 214 216 218 221 224 227 229 230 232 234 236 239 240 240 240 241 242 244 244 244 244 246 248 247 245 245 246 245 247 252 253 251 251 254 257 262 266 263 258 260 267 269